"Time","Value","Approval","myLocation"
"2023-12-03 13:00",0.534,"Working","OW128"
"2023-12-03 14:00",0.529,"Working","OW128"
"2023-12-03 15:00",0.525,"Working","OW128"
"2023-12-03 16:00",0.517,"Working","OW128"
"2023-12-03 17:00",0.51,"Working","OW128"
"2023-12-03 18:00",0.506,"Working","OW128"
"2023-12-03 19:00",0.506,"Working","OW128"
"2023-12-03 20:00",0.511,"Working","OW128"
"2023-12-03 21:00",0.515,"Working","OW128"
"2023-12-03 22:00",0.521,"Working","OW128"
"2023-12-03 23:00",0.526,"Working","OW128"
"2023-12-04 00:00",0.532,"Working","OW128"
"2023-12-04 01:00",0.538,"Working","OW128"
"2023-12-04 02:00",0.542,"Working","OW128"
"2023-12-04 03:00",0.544,"Working","OW128"
"2023-12-04 04:00",0.542,"Working","OW128"
"2023-12-04 05:00",0.542,"Working","OW128"
"2023-12-04 06:00",0.543,"Working","OW128"
"2023-12-04 07:00",0.545,"Working","OW128"
"2023-12-04 08:00",0.547,"Working","OW128"
"2023-12-04 09:00",0.551,"Working","OW128"
"2023-12-04 10:00",0.551,"Working","OW128"
"2023-12-04 11:00",0.55,"Working","OW128"
"2023-12-04 12:00",0.547,"Working","OW128"
"2023-12-05 13:00",0.281,"Working","OW128"
"2023-12-05 14:00",0.275,"Working","OW128"
"2023-12-05 15:00",0.272,"Working","OW128"
"2023-12-05 16:00",0.269,"Working","OW128"
"2023-12-05 17:00",0.266,"Working","OW128"
"2023-12-05 18:00",0.265,"Working","OW128"
"2023-12-05 19:00",0.263,"Working","OW128"
"2023-12-05 20:00",0.262,"Working","OW128"
"2023-12-05 21:00",0.261,"Working","OW128"
"2023-12-05 22:00",0.26,"Working","OW128"
"2023-12-05 23:00",0.259,"Working","OW128"
"2023-12-06 00:00",0.259,"Working","OW128"
"2023-12-06 01:00",0.261,"Working","OW128"
"2023-12-06 02:00",0.262,"Working","OW128"
"2023-12-06 03:00",0.262,"Working","OW128"
"2023-12-06 04:00",0.262,"Working","OW128"
"2023-12-06 05:00",0.262,"Working","OW128"
"2023-12-06 06:00",0.263,"Working","OW128"
"2023-12-06 07:00",0.265,"Working","OW128"
"2023-12-06 08:00",0.266,"Working","OW128"
"2023-12-06 09:00",0.266,"Working","OW128"
"2023-12-06 10:00",0.267,"Working","OW128"
"2023-12-06 11:00",0.268,"Working","OW128"
"2023-12-06 12:00",0.269,"Working","OW128"
"2023-12-08 13:00",0.442,"Working","OW128"
"2023-12-08 14:00",0.446,"Working","OW128"
"2023-12-08 15:00",0.449,"Working","OW128"
"2023-12-08 16:00",0.453,"Working","OW128"
"2023-12-08 17:00",0.458,"Working","OW128"
"2023-12-08 18:00",0.462,"Working","OW128"
"2023-12-08 19:00",0.465,"Working","OW128"
"2023-12-08 20:00",0.466,"Working","OW128"
"2023-12-08 21:00",0.467,"Working","OW128"
"2023-12-08 22:00",0.469,"Working","OW128"
"2023-12-08 23:00",0.47,"Working","OW128"
"2023-12-09 00:00",0.473,"Working","OW128"
"2023-12-09 01:00",0.474,"Working","OW128"
"2023-12-09 02:00",0.475,"Working","OW128"
"2023-12-09 03:00",0.476,"Working","OW128"
"2023-12-09 04:00",0.475,"Working","OW128"
"2023-12-09 05:00",0.475,"Working","OW128"
"2023-12-09 06:00",0.475,"Working","OW128"
"2023-12-09 07:00",0.474,"Working","OW128"
"2023-12-09 08:00",0.472,"Working","OW128"
"2023-12-09 09:00",0.468,"Working","OW128"
"2023-12-09 10:00",0.465,"Working","OW128"
"2023-12-09 11:00",0.462,"Working","OW128"
"2023-12-09 12:00",0.458,"Working","OW128"
"2023-12-09 13:00",0.456,"Working","OW128"
"2023-12-09 14:00",0.454,"Working","OW128"
"2023-12-09 15:00",0.449,"Working","OW128"
"2023-12-09 16:00",0.444,"Working","OW128"
"2023-12-09 17:00",0.442,"Working","OW128"
"2023-12-09 18:00",0.443,"Working","OW128"
"2023-12-09 19:00",0.444,"Working","OW128"
"2023-12-09 20:00",0.439,"Working","OW128"
"2023-12-09 21:00",0.431,"Working","OW128"
"2023-12-09 22:00",0.424,"Working","OW128"
"2023-12-09 23:00",0.415,"Working","OW128"
"2023-12-10 00:00",0.409,"Working","OW128"
"2023-12-10 01:00",0.401,"Working","OW128"
"2023-12-10 02:00",0.391,"Working","OW128"
"2023-12-10 03:00",0.382,"Working","OW128"
"2023-12-10 04:00",0.373,"Working","OW128"
"2023-12-10 05:00",0.363,"Working","OW128"
"2023-12-10 06:00",0.352,"Working","OW128"
"2023-12-10 07:00",0.342,"Working","OW128"
"2023-12-10 08:00",0.333,"Working","OW128"
"2023-12-10 09:00",0.324,"Working","OW128"
"2023-12-10 10:00",0.316,"Working","OW128"
"2023-12-10 11:00",0.31,"Working","OW128"
"2023-12-10 12:00",0.305,"Working","OW128"
"2023-12-10 13:00",0.301,"Working","OW128"
"2023-12-10 14:00",0.298,"Working","OW128"
"2023-12-10 15:00",0.295,"Working","OW128"
"2023-12-10 16:00",0.293,"Working","OW128"
"2023-12-10 17:00",0.293,"Working","OW128"
"2023-12-10 18:00",0.293,"Working","OW128"
"2023-12-10 19:00",0.291,"Working","OW128"
"2023-12-10 20:00",0.288,"Working","OW128"
"2023-12-10 21:00",0.286,"Working","OW128"
"2023-12-10 22:00",0.284,"Working","OW128"
"2023-12-10 23:00",0.283,"Working","OW128"
"2023-12-11 00:00",0.285,"Working","OW128"
"2023-12-11 01:00",0.288,"Working","OW128"
"2023-12-11 02:00",0.29,"Working","OW128"
"2023-12-11 03:00",0.293,"Working","OW128"
"2023-12-11 04:00",0.294,"Working","OW128"
"2023-12-11 05:00",0.297,"Working","OW128"
"2023-12-11 06:00",0.299,"Working","OW128"
"2023-12-11 07:00",0.302,"Working","OW128"
"2023-12-11 08:00",0.305,"Working","OW128"
"2023-12-11 09:00",0.306,"Working","OW128"
"2023-12-11 10:00",0.308,"Working","OW128"
"2023-12-11 11:00",0.309,"Working","OW128"
"2023-12-11 12:00",0.311,"Working","OW128"
"2023-12-11 13:00",0.313,"Working","OW128"
"2023-12-11 14:00",0.315,"Working","OW128"
"2023-12-11 15:00",0.317,"Working","OW128"
"2023-12-11 16:00",0.319,"Working","OW128"
"2023-12-11 17:00",0.322,"Working","OW128"
"2023-12-11 18:00",0.325,"Working","OW128"
"2023-12-11 19:00",0.327,"Working","OW128"
"2023-12-11 20:00",0.327,"Working","OW128"
"2023-12-11 21:00",0.326,"Working","OW128"
"2023-12-11 22:00",0.325,"Working","OW128"
"2023-12-11 23:00",0.325,"Working","OW128"
"2023-12-12 00:00",0.326,"Working","OW128"
"2023-12-12 01:00",0.328,"Working","OW128"
"2023-12-12 02:00",0.331,"Working","OW128"
"2023-12-12 03:00",0.334,"Working","OW128"
"2023-12-12 04:00",0.336,"Working","OW128"
"2023-12-12 05:00",0.34,"Working","OW128"
"2023-12-12 06:00",0.343,"Working","OW128"
"2023-12-12 07:00",0.346,"Working","OW128"
"2023-12-12 08:00",0.348,"Working","OW128"
"2023-12-12 09:00",0.349,"Working","OW128"
"2023-12-12 10:00",0.351,"Working","OW128"
"2023-12-12 11:00",0.352,"Working","OW128"
"2023-12-12 12:00",0.353,"Working","OW128"
"2023-12-12 13:00",0.353,"Working","OW128"
"2023-12-12 14:00",0.354,"Working","OW128"
"2023-12-12 15:00",0.356,"Working","OW128"
"2023-12-12 16:00",0.358,"Working","OW128"
"2023-12-12 17:00",0.361,"Working","OW128"
"2023-12-12 18:00",0.365,"Working","OW128"
"2023-12-12 19:00",0.367,"Working","OW128"
"2023-12-12 20:00",0.368,"Working","OW128"
"2023-12-12 21:00",0.368,"Working","OW128"
"2023-12-12 22:00",0.367,"Working","OW128"
"2023-12-12 23:00",0.367,"Working","OW128"
"2023-12-13 00:00",0.366,"Working","OW128"
"2023-12-13 01:00",0.367,"Working","OW128"
"2023-12-13 02:00",0.369,"Working","OW128"
"2023-12-13 03:00",0.372,"Working","OW128"
"2023-12-13 04:00",0.375,"Working","OW128"
"2023-12-13 05:00",0.376,"Working","OW128"
"2023-12-13 06:00",0.377,"Working","OW128"
"2023-12-13 07:00",0.379,"Working","OW128"
"2023-12-13 08:00",0.377,"Working","OW128"
"2023-12-13 09:00",0.377,"Working","OW128"
"2023-12-13 10:00",0.377,"Working","OW128"
"2023-12-13 11:00",0.378,"Working","OW128"
"2023-12-13 12:00",0.379,"Working","OW128"
"2023-12-13 13:00",0.38,"Working","OW128"
"2023-12-13 14:00",0.381,"Working","OW128"
"2023-12-13 15:00",0.383,"Working","OW128"
"2023-12-13 16:00",0.385,"Working","OW128"
"2023-12-13 17:00",0.387,"Working","OW128"
"2023-12-13 18:00",0.39,"Working","OW128"
"2023-12-13 19:00",0.395,"Working","OW128"
"2023-12-13 20:00",0.397,"Working","OW128"
"2023-12-13 21:00",0.397,"Working","OW128"
"2023-12-13 22:00",0.395,"Working","OW128"
"2023-12-13 23:00",0.397,"Working","OW128"
"2023-12-14 00:00",0.399,"Working","OW128"
"2023-12-14 01:00",0.403,"Working","OW128"
"2023-12-14 02:00",0.406,"Working","OW128"
"2023-12-14 03:00",0.411,"Working","OW128"
"2023-12-14 04:00",0.416,"Working","OW128"
"2023-12-14 05:00",0.419,"Working","OW128"
"2023-12-14 06:00",0.423,"Working","OW128"
"2023-12-14 07:00",0.427,"Working","OW128"
"2023-12-14 08:00",0.432,"Working","OW128"
"2023-12-14 09:00",0.435,"Working","OW128"
"2023-12-14 10:00",0.437,"Working","OW128"
"2023-12-14 11:00",0.441,"Working","OW128"
"2023-12-14 12:00",0.443,"Working","OW128"
"2023-12-15 13:00",0.48,"Working","OW128"
"2023-12-15 14:00",0.48,"Working","OW128"
"2023-12-15 15:00",0.478,"Working","OW128"
"2023-12-15 16:00",0.476,"Working","OW128"
"2023-12-15 17:00",0.475,"Working","OW128"
"2023-12-15 18:00",0.473,"Working","OW128"
"2023-12-15 19:00",0.471,"Working","OW128"
"2023-12-15 20:00",0.467,"Working","OW128"
"2023-12-15 21:00",0.464,"Working","OW128"
"2023-12-15 22:00",0.459,"Working","OW128"
"2023-12-15 23:00",0.456,"Working","OW128"
"2023-12-16 00:00",0.455,"Working","OW128"
"2023-12-16 01:00",0.455,"Working","OW128"
"2023-12-16 02:00",0.454,"Working","OW128"
"2023-12-16 03:00",0.453,"Working","OW128"
"2023-12-16 04:00",0.454,"Working","OW128"
"2023-12-16 05:00",0.454,"Working","OW128"
"2023-12-16 06:00",0.454,"Working","OW128"
"2023-12-16 07:00",0.455,"Working","OW128"
"2023-12-16 08:00",0.455,"Working","OW128"
"2023-12-16 09:00",0.454,"Working","OW128"
"2023-12-16 10:00",0.455,"Working","OW128"
"2023-12-16 11:00",0.457,"Working","OW128"
"2023-12-16 12:00",0.459,"Working","OW128"
"2023-12-17 13:00",0.495,"Working","OW128"
"2023-12-17 14:00",0.495,"Working","OW128"
"2023-12-17 15:00",0.494,"Working","OW128"
"2023-12-17 16:00",0.493,"Working","OW128"
"2023-12-17 17:00",0.493,"Working","OW128"
"2023-12-17 18:00",0.494,"Working","OW128"
"2023-12-17 19:00",0.495,"Working","OW128"
"2023-12-17 20:00",0.492,"Working","OW128"
"2023-12-17 21:00",0.488,"Working","OW128"
"2023-12-17 22:00",0.484,"Working","OW128"
"2023-12-17 23:00",0.482,"Working","OW128"
"2023-12-18 00:00",0.48,"Working","OW128"
"2023-12-18 01:00",0.479,"Working","OW128"
"2023-12-18 02:00",0.478,"Working","OW128"
"2023-12-18 03:00",0.477,"Working","OW128"
"2023-12-18 04:00",0.476,"Working","OW128"
"2023-12-18 05:00",0.475,"Working","OW128"
"2023-12-18 06:00",0.476,"Working","OW128"
"2023-12-18 07:00",0.475,"Working","OW128"
"2023-12-18 08:00",0.473,"Working","OW128"
"2023-12-18 09:00",0.473,"Working","OW128"
"2023-12-18 10:00",0.472,"Working","OW128"
"2023-12-18 11:00",0.473,"Working","OW128"
"2023-12-18 12:00",0.472,"Working","OW128"
"2023-12-23 13:00",0.591,"Working","OW128"
"2023-12-23 14:00",0.591,"Working","OW128"
"2023-12-23 15:00",0.592,"Working","OW128"
"2023-12-23 16:00",0.594,"Working","OW128"
"2023-12-23 17:00",0.596,"Working","OW128"
"2023-12-23 18:00",0.597,"Working","OW128"
"2023-12-23 19:00",0.597,"Working","OW128"
"2023-12-23 20:00",0.594,"Working","OW128"
"2023-12-23 21:00",0.591,"Working","OW128"
"2023-12-23 22:00",0.588,"Working","OW128"
"2023-12-23 23:00",0.586,"Working","OW128"
"2023-12-24 00:00",0.585,"Working","OW128"
"2023-12-24 01:00",0.583,"Working","OW128"
"2023-12-24 02:00",0.581,"Working","OW128"
"2023-12-24 03:00",0.579,"Working","OW128"
"2023-12-24 04:00",0.576,"Working","OW128"
"2023-12-24 05:00",0.573,"Working","OW128"
"2023-12-24 06:00",0.571,"Working","OW128"
"2023-12-24 07:00",0.569,"Working","OW128"
"2023-12-24 08:00",0.565,"Working","OW128"
"2023-12-24 09:00",0.561,"Working","OW128"
"2023-12-24 10:00",0.555,"Working","OW128"
"2023-12-24 11:00",0.551,"Working","OW128"
"2023-12-24 12:00",0.548,"Working","OW128"
"2024-01-05 13:00",0.574,"Working","OW128"
"2024-01-05 14:00",0.575,"Working","OW128"
"2024-01-05 15:00",0.576,"Working","OW128"
"2024-01-05 16:00",0.575,"Working","OW128"
"2024-01-05 17:00",0.576,"Working","OW128"
"2024-01-05 18:00",0.575,"Working","OW128"
"2024-01-05 19:00",0.574,"Working","OW128"
"2024-01-05 20:00",0.566,"Working","OW128"
"2024-01-05 21:00",0.559,"Working","OW128"
"2024-01-05 22:00",0.553,"Working","OW128"
"2024-01-05 23:00",0.548,"Working","OW128"
"2024-01-06 00:00",0.542,"Working","OW128"
"2024-01-06 01:00",0.539,"Working","OW128"
"2024-01-06 02:00",0.535,"Working","OW128"
"2024-01-06 03:00",0.53,"Working","OW128"
"2024-01-06 04:00",0.524,"Working","OW128"
"2024-01-06 05:00",0.517,"Working","OW128"
"2024-01-06 06:00",0.511,"Working","OW128"
"2024-01-06 07:00",0.505,"Working","OW128"
"2024-01-06 08:00",0.501,"Working","OW128"
"2024-01-06 09:00",0.5,"Working","OW128"
"2024-01-06 10:00",0.499,"Working","OW128"
"2024-01-06 11:00",0.498,"Working","OW128"
"2024-01-06 12:00",0.496,"Working","OW128"
"2024-01-08 13:00",0.558,"Working","OW128"
"2024-01-08 14:00",0.556,"Working","OW128"
"2024-01-08 15:00",0.555,"Working","OW128"
"2024-01-08 16:00",0.553,"Working","OW128"
"2024-01-08 17:00",0.552,"Working","OW128"
"2024-01-08 18:00",0.55,"Working","OW128"
"2024-01-08 19:00",0.547,"Working","OW128"
"2024-01-08 20:00",0.542,"Working","OW128"
"2024-01-08 21:00",0.536,"Working","OW128"
"2024-01-08 22:00",0.528,"Working","OW128"
"2024-01-08 23:00",0.519,"Working","OW128"
"2024-01-09 00:00",0.511,"Working","OW128"
"2024-01-09 01:00",0.5,"Working","OW128"
"2024-01-09 02:00",0.486,"Working","OW128"
"2024-01-09 03:00",0.468,"Working","OW128"
"2024-01-09 04:00",0.447,"Working","OW128"
"2024-01-09 05:00",0.426,"Working","OW128"
"2024-01-09 06:00",0.402,"Working","OW128"
"2024-01-09 07:00",0.378,"Working","OW128"
"2024-01-09 08:00",0.361,"Working","OW128"
"2024-01-09 09:00",0.346,"Working","OW128"
"2024-01-09 10:00",0.332,"Working","OW128"
"2024-01-09 11:00",0.319,"Working","OW128"
"2024-01-09 12:00",0.304,"Working","OW128"
"2024-01-09 13:00",0.289,"Working","OW128"
"2024-01-09 14:00",0.275,"Working","OW128"
"2024-01-09 15:00",0.265,"Working","OW128"
"2024-01-09 16:00",0.259,"Working","OW128"
"2024-01-09 17:00",0.252,"Working","OW128"
"2024-01-09 18:00",0.251,"Working","OW128"
"2024-01-09 19:00",0.255,"Working","OW128"
"2024-01-09 20:00",0.258,"Working","OW128"
"2024-01-09 21:00",0.261,"Working","OW128"
"2024-01-09 22:00",0.262,"Working","OW128"
"2024-01-09 23:00",0.264,"Working","OW128"
"2024-01-10 00:00",0.266,"Working","OW128"
"2024-01-10 01:00",0.267,"Working","OW128"
"2024-01-10 02:00",0.27,"Working","OW128"
"2024-01-10 03:00",0.273,"Working","OW128"
"2024-01-10 04:00",0.274,"Working","OW128"
"2024-01-10 05:00",0.274,"Working","OW128"
"2024-01-10 06:00",0.273,"Working","OW128"
"2024-01-10 07:00",0.272,"Working","OW128"
"2024-01-10 08:00",0.272,"Working","OW128"
"2024-01-10 09:00",0.274,"Working","OW128"
"2024-01-10 10:00",0.276,"Working","OW128"
"2024-01-10 11:00",0.279,"Working","OW128"
"2024-01-10 12:00",0.282,"Working","OW128"
"2024-01-11 13:00",0.356,"Working","OW128"
"2024-01-11 14:00",0.358,"Working","OW128"
"2024-01-11 15:00",0.359,"Working","OW128"
"2024-01-11 16:00",0.361,"Working","OW128"
"2024-01-11 17:00",0.363,"Working","OW128"
"2024-01-11 18:00",0.366,"Working","OW128"
"2024-01-11 19:00",0.368,"Working","OW128"
"2024-01-11 20:00",0.372,"Working","OW128"
"2024-01-11 21:00",0.374,"Working","OW128"
"2024-01-11 22:00",0.38,"Working","OW128"
"2024-01-11 23:00",0.386,"Working","OW128"
"2024-01-12 00:00",0.392,"Working","OW128"
"2024-01-12 01:00",0.399,"Working","OW128"
"2024-01-12 02:00",0.405,"Working","OW128"
"2024-01-12 03:00",0.41,"Working","OW128"
"2024-01-12 04:00",0.416,"Working","OW128"
"2024-01-12 05:00",0.423,"Working","OW128"
"2024-01-12 06:00",0.429,"Working","OW128"
"2024-01-12 07:00",0.434,"Working","OW128"
"2024-01-12 08:00",0.439,"Working","OW128"
"2024-01-12 09:00",0.444,"Working","OW128"
"2024-01-12 10:00",0.448,"Working","OW128"
"2024-01-12 11:00",0.451,"Working","OW128"
"2024-01-12 12:00",0.455,"Working","OW128"
"2024-01-12 13:00",0.458,"Working","OW128"
"2024-01-12 14:00",0.461,"Working","OW128"
"2024-01-12 15:00",0.463,"Working","OW128"
"2024-01-12 16:00",0.466,"Working","OW128"
"2024-01-12 17:00",0.469,"Working","OW128"
"2024-01-12 18:00",0.473,"Working","OW128"
"2024-01-12 19:00",0.474,"Working","OW128"
"2024-01-12 20:00",0.475,"Working","OW128"
"2024-01-12 21:00",0.475,"Working","OW128"
"2024-01-12 22:00",0.474,"Working","OW128"
"2024-01-12 23:00",0.472,"Working","OW128"
"2024-01-13 00:00",0.471,"Working","OW128"
"2024-01-13 01:00",0.472,"Working","OW128"
"2024-01-13 02:00",0.473,"Working","OW128"
"2024-01-13 03:00",0.473,"Working","OW128"
"2024-01-13 04:00",0.473,"Working","OW128"
"2024-01-13 05:00",0.473,"Working","OW128"
"2024-01-13 06:00",0.474,"Working","OW128"
"2024-01-13 07:00",0.472,"Working","OW128"
"2024-01-13 08:00",0.47,"Working","OW128"
"2024-01-13 09:00",0.468,"Working","OW128"
"2024-01-13 10:00",0.465,"Working","OW128"
"2024-01-13 11:00",0.464,"Working","OW128"
"2024-01-13 12:00",0.461,"Working","OW128"
"2024-01-13 13:00",0.457,"Working","OW128"
"2024-01-13 14:00",0.453,"Working","OW128"
"2024-01-13 15:00",0.451,"Working","OW128"
"2024-01-13 16:00",0.448,"Working","OW128"
"2024-01-13 17:00",0.448,"Working","OW128"
"2024-01-13 18:00",0.446,"Working","OW128"
"2024-01-13 19:00",0.444,"Working","OW128"
"2024-01-13 20:00",0.441,"Working","OW128"
"2024-01-13 21:00",0.438,"Working","OW128"
"2024-01-13 22:00",0.435,"Working","OW128"
"2024-01-13 23:00",0.435,"Working","OW128"
"2024-01-14 00:00",0.437,"Working","OW128"
"2024-01-14 01:00",0.442,"Working","OW128"
"2024-01-14 02:00",0.448,"Working","OW128"
"2024-01-14 03:00",0.453,"Working","OW128"
"2024-01-14 04:00",0.46,"Working","OW128"
"2024-01-14 05:00",0.466,"Working","OW128"
"2024-01-14 06:00",0.471,"Working","OW128"
"2024-01-14 07:00",0.478,"Working","OW128"
"2024-01-14 08:00",0.484,"Working","OW128"
"2024-01-14 09:00",0.489,"Working","OW128"
"2024-01-14 10:00",0.495,"Working","OW128"
"2024-01-14 11:00",0.501,"Working","OW128"
"2024-01-14 12:00",0.507,"Working","OW128"
"2024-01-14 13:00",0.511,"Working","OW128"
"2024-01-14 14:00",0.515,"Working","OW128"
"2024-01-14 15:00",0.519,"Working","OW128"
"2024-01-14 16:00",0.523,"Working","OW128"
"2024-01-14 17:00",0.528,"Working","OW128"
"2024-01-14 18:00",0.533,"Working","OW128"
"2024-01-14 19:00",0.539,"Working","OW128"
"2024-01-14 20:00",0.54,"Working","OW128"
"2024-01-14 21:00",0.541,"Working","OW128"
"2024-01-14 22:00",0.542,"Working","OW128"
"2024-01-14 23:00",0.543,"Working","OW128"
"2024-01-15 00:00",0.544,"Working","OW128"
"2024-01-15 01:00",0.546,"Working","OW128"
"2024-01-15 02:00",0.548,"Working","OW128"
"2024-01-15 03:00",0.551,"Working","OW128"
"2024-01-15 04:00",0.552,"Working","OW128"
"2024-01-15 05:00",0.553,"Working","OW128"
"2024-01-15 06:00",0.555,"Working","OW128"
"2024-01-15 07:00",0.559,"Working","OW128"
"2024-01-15 08:00",0.56,"Working","OW128"
"2024-01-15 09:00",0.562,"Working","OW128"
"2024-01-15 10:00",0.563,"Working","OW128"
"2024-01-15 11:00",0.566,"Working","OW128"
"2024-01-15 12:00",0.566,"Working","OW128"
"2024-01-15 13:00",0.564,"Working","OW128"
"2024-01-15 14:00",0.564,"Working","OW128"
"2024-01-15 15:00",0.564,"Working","OW128"
"2024-01-15 16:00",0.563,"Working","OW128"
"2024-01-15 17:00",0.563,"Working","OW128"
"2024-01-15 18:00",0.565,"Working","OW128"
"2024-01-15 19:00",0.566,"Working","OW128"
"2024-01-15 20:00",0.565,"Working","OW128"
"2024-01-15 21:00",0.564,"Working","OW128"
"2024-01-15 22:00",0.563,"Working","OW128"
"2024-01-15 23:00",0.561,"Working","OW128"
"2024-01-16 00:00",0.557,"Working","OW128"
"2024-01-16 01:00",0.557,"Working","OW128"
"2024-01-16 02:00",0.556,"Working","OW128"
"2024-01-16 03:00",0.554,"Working","OW128"
"2024-01-16 04:00",0.552,"Working","OW128"
"2024-01-16 05:00",0.551,"Working","OW128"
"2024-01-16 06:00",0.55,"Working","OW128"
"2024-01-16 07:00",0.55,"Working","OW128"
"2024-01-16 08:00",0.549,"Working","OW128"
"2024-01-16 09:00",0.548,"Working","OW128"
"2024-01-16 10:00",0.547,"Working","OW128"
"2024-01-16 11:00",0.545,"Working","OW128"
"2024-01-16 12:00",0.542,"Working","OW128"
"2024-01-16 13:00",0.54,"Working","OW128"
"2024-01-16 14:00",0.538,"Working","OW128"
"2024-01-16 15:00",0.536,"Working","OW128"
"2024-01-16 16:00",0.534,"Working","OW128"
"2024-01-16 17:00",0.535,"Working","OW128"
"2024-01-16 18:00",0.534,"Working","OW128"
"2024-01-16 19:00",0.534,"Working","OW128"
"2024-01-16 20:00",0.533,"Working","OW128"
"2024-01-16 21:00",0.53,"Working","OW128"
"2024-01-16 22:00",0.527,"Working","OW128"
"2024-01-16 23:00",0.525,"Working","OW128"
"2024-01-17 00:00",0.524,"Working","OW128"
"2024-01-17 01:00",0.522,"Working","OW128"
"2024-01-17 02:00",0.52,"Working","OW128"
"2024-01-17 03:00",0.519,"Working","OW128"
"2024-01-17 04:00",0.519,"Working","OW128"
"2024-01-17 05:00",0.518,"Working","OW128"
"2024-01-17 06:00",0.518,"Working","OW128"
"2024-01-17 07:00",0.518,"Working","OW128"
"2024-01-17 08:00",0.519,"Working","OW128"
"2024-01-17 09:00",0.519,"Working","OW128"
"2024-01-17 10:00",0.517,"Working","OW128"
"2024-01-17 11:00",0.516,"Working","OW128"
"2024-01-17 12:00",0.515,"Working","OW128"
"2024-01-17 13:00",0.514,"Working","OW128"
"2024-01-17 14:00",0.512,"Working","OW128"
"2024-01-17 15:00",0.51,"Working","OW128"
"2024-01-17 16:00",0.51,"Working","OW128"
"2024-01-17 17:00",0.512,"Working","OW128"
"2024-01-17 18:00",0.517,"Working","OW128"
"2024-01-17 19:00",0.524,"Working","OW128"
"2024-01-17 20:00",0.533,"Working","OW128"
"2024-01-17 21:00",0.542,"Working","OW128"
"2024-01-17 22:00",0.552,"Working","OW128"
"2024-01-17 23:00",0.565,"Working","OW128"
"2024-01-18 00:00",0.576,"Working","OW128"
"2024-01-18 01:00",0.585,"Working","OW128"
"2024-01-18 02:00",0.594,"Working","OW128"
"2024-01-18 03:00",0.601,"Working","OW128"
"2024-01-18 04:00",0.608,"Working","OW128"
"2024-01-18 05:00",0.615,"Working","OW128"
"2024-01-18 06:00",0.621,"Working","OW128"
"2024-01-18 07:00",0.626,"Working","OW128"
"2024-01-18 08:00",0.632,"Working","OW128"
"2024-01-18 09:00",0.634,"Working","OW128"
"2024-01-18 10:00",0.634,"Working","OW128"
"2024-01-18 11:00",0.634,"Working","OW128"
"2024-01-18 12:00",0.634,"Working","OW128"
"2024-01-18 13:00",0.633,"Working","OW128"
"2024-01-18 14:00",0.632,"Working","OW128"
"2024-01-18 15:00",0.632,"Working","OW128"
"2024-01-18 16:00",0.633,"Working","OW128"
"2024-01-18 17:00",0.634,"Working","OW128"
"2024-01-18 18:00",0.634,"Working","OW128"
"2024-01-18 19:00",0.635,"Working","OW128"
"2024-01-18 20:00",0.635,"Working","OW128"
"2024-01-18 21:00",0.633,"Working","OW128"
"2024-01-18 22:00",0.63,"Working","OW128"
"2024-01-18 23:00",0.627,"Working","OW128"
"2024-01-19 00:00",0.625,"Working","OW128"
"2024-01-19 01:00",0.623,"Working","OW128"
"2024-01-19 02:00",0.62,"Working","OW128"
"2024-01-19 03:00",0.618,"Working","OW128"
"2024-01-19 04:00",0.616,"Working","OW128"
"2024-01-19 05:00",0.614,"Working","OW128"
"2024-01-19 06:00",0.611,"Working","OW128"
"2024-01-19 07:00",0.608,"Working","OW128"
"2024-01-19 08:00",0.607,"Working","OW128"
"2024-01-19 09:00",0.606,"Working","OW128"
"2024-01-19 10:00",0.603,"Working","OW128"
"2024-01-19 11:00",0.601,"Working","OW128"
"2024-01-19 12:00",0.6,"Working","OW128"
"2024-01-19 13:00",0.597,"Working","OW128"
"2024-01-19 14:00",0.593,"Working","OW128"
"2024-01-19 15:00",0.591,"Working","OW128"
"2024-01-19 16:00",0.587,"Working","OW128"
"2024-01-19 17:00",0.583,"Working","OW128"
"2024-01-19 18:00",0.582,"Working","OW128"
"2024-01-19 19:00",0.579,"Working","OW128"
"2024-01-19 20:00",0.575,"Working","OW128"
"2024-01-19 21:00",0.57,"Working","OW128"
"2024-01-19 22:00",0.562,"Working","OW128"
"2024-01-19 23:00",0.555,"Working","OW128"
"2024-01-20 00:00",0.547,"Working","OW128"
"2024-01-20 01:00",0.538,"Working","OW128"
"2024-01-20 02:00",0.528,"Working","OW128"
"2024-01-20 03:00",0.517,"Working","OW128"
"2024-01-20 04:00",0.506,"Working","OW128"
"2024-01-20 05:00",0.497,"Working","OW128"